Location: Unspecified
(0.0000°N, 0.0000°E)
Time: 18:47:45
(UTC+00:00)

Vanguard 2 Rocket - Pass Details

Date: 19 November 2019
Orbit: 554 x 3326 km, 32.9° (Epoch: 05 December)

Event Time Altitude Azimuth Distance (km) Brightness Sun altitude
Rises 18:46:54 0° 224° (SW) 5,826 12.2 -14.5°
Reaches altitude 10° 18:51:56 10° 215° (SW) 4,310 11.2 -15.7°
Maximum altitude 19:01:06 32° 156° (SSE) 2,035 8.6 -17.8°
Enters shadow 19:04:51 20° 109° (ESE) 2,201 8.4 -18.7°
